Location: Newark
(45.0500°N, 41.9667°E)
Time: 09:43:11
(UTC+00:00)

Starlink (trailer) - Pass Details

Date: 29 July 2019
Orbit: 549 x 551 km, 53.0° (Epoch: 26 August)

Event Time Altitude Azimuth Distance (km) Brightness Sun altitude
Rises 18:55:27 0° 225° (SW) 2,705 7.1 -18.4°
Reaches altitude 10° 18:57:41 10° 221° (SW) 1,815 6.1 -18.7°
Maximum altitude 19:01:44 60° 142° (SE) 633 3.5 -19.1°
Drops below altitude 10° 19:05:50 10° 63° (ENE) 1,826 6.2 -19.5°
Sets 19:08:05 0° 59° (ENE) 2,723 7.2 -19.7°
